Location: Beccas
(43.4309°N, 0.1528°E)
Time: 19:45:35
(UTC+00:00)

N. Korean satellite - Visible Passes

Search period start: 16 January 2022 00:00
Search period end: 26 January 2022 00:00
Orbit: 446 x 492 km, 97.3° (Epoch: 16 January)

Date Brightness Start Highest point End Pass type
(mag) Time Alt. Az. Time Alt. Az. Time Alt. Az.
16 Jan10.104:35:08SSE04:35:08SSE04:26:24NEvisible
16 Jan 8.9 06:00:13 10° NNW 06:00:28 11° NNW 06:00:28 11° NNW visible
17 Jan 8.9 05:30:48 10° N 05:39:53 - SSW 05:31:25 14° N visible
18 Jan 9.1 05:01:45 10° NNE 05:10:34 - S 05:02:20 14° NNE visible
19 Jan 9.7 04:33:09 10° NE 04:41:14 - SSE 04:33:15 11° NE visible
19 Jan 8.4 06:06:16 10° NNW 06:07:18 16° NNW 06:07:18 16° NNW visible
20 Jan 8.1 05:36:40 10° N 05:38:12 23° N 05:38:12 23° N visible
21 Jan 8.4 05:07:28 10° NNE 05:16:30 - S 05:09:05 25° NNE visible
22 Jan 9.1 04:38:41 10° NE 04:47:04 - SSE 04:39:58 18° NE visible
22 Jan 8.1 06:12:06 10° NNW 06:14:01 19° NW 06:14:01 19° NW visible
23 Jan 10.0 04:10:47 10° ENE 04:10:50 10° ENE 04:10:50 10° ENE visible
23 Jan 7.3 05:42:19 10° N 05:44:53 35° NW 05:44:53 35° NW visible
24 Jan 7.2 05:12:59 10° NNE 05:22:09 - S 05:15:45 49° NNE visible
25 Jan 8.5 04:44:02 10° NNE 04:52:37 - S 04:46:35 29° ENE visible
25 Jan 8.1 06:17:46 10° NNW 06:20:14 17° WNW 06:20:39 17° WNW visible
